Year,Month,Day,Hour,Minute,Value (Times are PST for barometer in hPa)
2016,03,05,00,00,993.75
2016,03,05,00,01,993.79
2016,03,05,00,02,993.70
2016,03,05,00,03,993.67
2016,03,05,00,04,993.74
2016,03,05,00,05,993.84
2016,03,05,00,06,993.80
2016,03,05,00,07,993.58
2016,03,05,00,08,993.57
2016,03,05,00,09,993.53
2016,03,05,00,10,993.50
2016,03,05,00,11,993.57
2016,03,05,00,12,993.43
2016,03,05,00,13,993.40
2016,03,05,00,14,993.56
2016,03,05,00,15,993.34
2016,03,05,00,16,993.50
2016,03,05,00,17,993.50
2016,03,05,00,18,993.36
2016,03,05,00,19,993.26
2016,03,05,00,20,993.23
2016,03,05,00,21,993.26
2016,03,05,00,22,993.09
2016,03,05,00,23,993.16
2016,03,05,00,24,993.13
2016,03,05,00,25,993.06
2016,03,05,00,26,993.03
2016,03,05,00,27,993.09
2016,03,05,00,28,993.13
2016,03,05,00,29,993.09
2016,03,05,00,30,993.13
2016,03,05,00,31,992.97
2016,03,05,00,32,993.09
2016,03,05,00,33,992.90
2016,03,05,00,34,992.99
2016,03,05,00,35,993.06
2016,03,05,00,36,992.76
2016,03,05,00,37,992.79
2016,03,05,00,38,992.72
2016,03,05,00,39,992.72
2016,03,05,00,40,992.69
2016,03,05,00,41,992.79
2016,03,05,00,42,992.79
2016,03,05,00,43,992.72
2016,03,05,00,44,992.75
2016,03,05,00,45,992.65
2016,03,05,00,46,992.58
2016,03,05,00,47,992.62
2016,03,05,00,48,992.55
2016,03,05,00,49,992.55
2016,03,05,00,50,992.62
2016,03,05,00,51,992.58
2016,03,05,00,52,992.55
2016,03,05,00,53,992.55
2016,03,05,00,54,992.52
2016,03,05,00,55,992.55
2016,03,05,00,56,992.55
2016,03,05,00,57,992.52
2016,03,05,00,58,992.65
2016,03,05,00,59,992.39
2016,03,05,01,00,992.62
2016,03,05,01,01,992.43
2016,03,05,01,02,992.35
2016,03,05,01,03,992.38
2016,03,05,01,04,992.48
2016,03,05,01,05,992.38
2016,03,05,01,06,992.35
2016,03,05,01,07,992.31
2016,03,05,01,08,992.28
2016,03,05,01,09,992.31
2016,03,05,01,10,992.31
2016,03,05,01,11,992.35
2016,03,05,01,12,992.47
2016,03,05,01,13,992.42
2016,03,05,01,14,992.31
2016,03,05,01,15,992.18
2016,03,05,01,16,992.21
2016,03,05,01,17,992.21
2016,03,05,01,18,992.09
2016,03,05,01,19,992.18
2016,03,05,01,20,992.11
2016,03,05,01,21,991.98
2016,03,05,01,22,992.04
2016,03,05,01,23,991.94
2016,03,05,01,24,991.94
2016,03,05,01,25,991.98
2016,03,05,01,26,991.94
2016,03,05,01,27,991.94
2016,03,05,01,28,991.98
2016,03,05,01,29,991.98
2016,03,05,01,30,991.94
2016,03,05,01,31,992.01
2016,03,05,01,32,991.94
2016,03,05,01,33,991.84
2016,03,05,01,34,991.77
2016,03,05,01,35,991.77
2016,03,05,01,36,991.77
2016,03,05,01,37,991.64
2016,03,05,01,38,991.83
2016,03,05,01,39,991.74
2016,03,05,01,40,991.70
2016,03,05,01,41,991.81
2016,03,05,01,42,991.84
2016,03,05,01,43,991.77
2016,03,05,01,44,991.70
2016,03,05,01,45,991.54
2016,03,05,01,46,991.57
2016,03,05,01,47,991.53
2016,03,05,01,48,991.53
2016,03,05,01,49,991.53
2016,03,05,01,50,991.50
2016,03,05,01,51,991.57
2016,03,05,01,52,991.57
2016,03,05,01,53,991.44
2016,03,05,01,54,991.43
2016,03,05,01,55,991.37
2016,03,05,01,56,991.40
2016,03,05,01,57,991.47
2016,03,05,01,58,991.47
2016,03,05,01,59,991.40
2016,03,05,02,00,991.37
2016,03,05,02,01,991.30
2016,03,05,02,02,991.30
2016,03,05,02,03,991.37
2016,03,05,02,04,991.33
2016,03,05,02,05,991.23
2016,03,05,02,06,991.23
2016,03,05,02,07,991.30
2016,03,05,02,08,991.16
2016,03,05,02,09,991.03
2016,03,05,02,10,991.09
2016,03,05,02,11,991.03
2016,03,05,02,12,991.06
2016,03,05,02,13,991.13
2016,03,05,02,14,991.00
2016,03,05,02,15,990.99
2016,03,05,02,16,990.96
2016,03,05,02,17,990.96
2016,03,05,02,18,990.96
2016,03,05,02,19,990.96
2016,03,05,02,20,990.96
2016,03,05,02,21,990.86
2016,03,05,02,22,990.99
2016,03,05,02,23,991.03
2016,03,05,02,24,990.93
2016,03,05,02,25,990.93
2016,03,05,02,26,990.93
2016,03,05,02,27,990.89
2016,03,05,02,28,990.82
2016,03,05,02,29,990.89
2016,03,05,02,30,990.93
2016,03,05,02,31,990.82
2016,03,05,02,32,990.96
2016,03,05,02,33,990.96
2016,03,05,02,34,991.03
2016,03,05,02,35,990.93
2016,03,05,02,36,990.99
2016,03,05,02,37,990.96
2016,03,05,02,38,990.93
2016,03,05,02,39,990.93
2016,03,05,02,40,991.03
2016,03,05,02,41,990.96
2016,03,05,02,42,990.96
2016,03,05,02,43,990.83
2016,03,05,02,44,990.82
2016,03,05,02,45,990.79
2016,03,05,02,46,990.86
2016,03,05,02,47,990.79
2016,03,05,02,48,990.72
2016,03,05,02,49,990.95
2016,03,05,02,50,990.89
2016,03,05,02,51,990.73
2016,03,05,02,52,990.65
2016,03,05,02,53,990.62
2016,03,05,02,54,990.59
2016,03,05,02,55,990.59
2016,03,05,02,56,990.69
2016,03,05,02,57,990.72
2016,03,05,02,58,990.65
2016,03,05,02,59,990.55
2016,03,05,03,00,990.59
2016,03,05,03,01,990.59
2016,03,05,03,02,990.49
2016,03,05,03,03,990.61
2016,03,05,03,04,990.65
2016,03,05,03,05,990.65
2016,03,05,03,06,990.69
2016,03,05,03,07,990.69
2016,03,05,03,08,990.69
2016,03,05,03,09,990.62
2016,03,05,03,10,990.59
2016,03,05,03,11,990.69
2016,03,05,03,12,990.79
2016,03,05,03,13,990.72
2016,03,05,03,14,990.76
2016,03,05,03,15,990.82
2016,03,05,03,16,990.89
2016,03,05,03,17,990.86
2016,03,05,03,18,990.86
2016,03,05,03,19,990.93
2016,03,05,03,20,991.05
2016,03,05,03,21,991.03
2016,03,05,03,22,991.06
2016,03,05,03,23,991.19
2016,03,05,03,24,991.20
2016,03,05,03,25,991.36
2016,03,05,03,26,991.30
2016,03,05,03,27,991.37
2016,03,05,03,28,991.21
2016,03,05,03,29,991.13
2016,03,05,03,30,991.16
2016,03,05,03,31,991.26
2016,03,05,03,32,991.46
2016,03,05,03,33,991.31
2016,03,05,03,34,991.26
2016,03,05,03,35,991.23
2016,03,05,03,36,991.16
2016,03,05,03,37,991.20
2016,03,05,03,38,991.07
2016,03,05,03,39,991.09
2016,03,05,03,40,991.13
2016,03,05,03,41,991.13
2016,03,05,03,42,991.00
2016,03,05,03,43,990.96
2016,03,05,03,44,990.89
2016,03,05,03,45,990.82
2016,03,05,03,46,990.95
2016,03,05,03,47,991.09
2016,03,05,03,48,991.22
2016,03,05,03,49,991.30
2016,03,05,03,50,991.30
2016,03,05,03,51,991.56
2016,03,05,03,52,991.44
2016,03,05,03,53,991.63
2016,03,05,03,54,991.57
2016,03,05,03,55,991.64
2016,03,05,03,56,991.74
2016,03,05,03,57,991.81
2016,03,05,03,58,991.68
2016,03,05,03,59,991.80
2016,03,05,04,00,991.71
2016,03,05,04,01,991.74
2016,03,05,04,02,991.84
2016,03,05,04,03,991.77
2016,03,05,04,04,991.81
2016,03,05,04,05,991.93
2016,03,05,04,06,991.91
2016,03,05,04,07,991.78
2016,03,05,04,08,991.74
2016,03,05,04,09,991.87
2016,03,05,04,10,991.77
2016,03,05,04,11,991.74
2016,03,05,04,12,991.81
2016,03,05,04,13,991.98
2016,03,05,04,14,991.91
2016,03,05,04,15,992.01
2016,03,05,04,16,991.94
2016,03,05,04,17,992.08
2016,03,05,04,18,992.08
2016,03,05,04,19,992.11
2016,03,05,04,20,992.08
2016,03,05,04,21,991.98
2016,03,05,04,22,991.91
2016,03,05,04,23,991.98
2016,03,05,04,24,991.94
2016,03,05,04,25,991.88
2016,03,05,04,26,992.01
2016,03,05,04,27,992.01
2016,03,05,04,28,991.98
2016,03,05,04,29,992.01
2016,03,05,04,30,992.01
2016,03,05,04,31,992.04
2016,03,05,04,32,992.04
2016,03,05,04,33,992.08
2016,03,05,04,34,992.12
2016,03,05,04,35,992.28
2016,03,05,04,36,992.18
2016,03,05,04,37,992.31
2016,03,05,04,38,992.38
2016,03,05,04,39,992.38
2016,03,05,04,40,992.35
2016,03,05,04,41,992.42
2016,03,05,04,42,992.42
2016,03,05,04,43,992.38
2016,03,05,04,44,992.48
2016,03,05,04,45,992.55
2016,03,05,04,46,992.55
2016,03,05,04,47,992.55
2016,03,05,04,48,992.58
2016,03,05,04,49,992.58
2016,03,05,04,50,992.55
2016,03,05,04,51,992.65
2016,03,05,04,52,992.62
2016,03,05,04,53,992.56
2016,03,05,04,54,992.72
2016,03,05,04,55,992.79
2016,03,05,04,56,992.69
2016,03,05,04,57,992.82
2016,03,05,04,58,992.96
2016,03,05,04,59,993.03
2016,03,05,05,00,992.99
2016,03,05,05,01,992.96
2016,03,05,05,02,992.79
2016,03,05,05,03,992.72
2016,03,05,05,04,992.79
2016,03,05,05,05,992.89
2016,03,05,05,06,992.99
2016,03,05,05,07,992.89
2016,03,05,05,08,993.03
2016,03,05,05,09,993.09
2016,03,05,05,10,993.19
2016,03,05,05,11,993.13
2016,03,05,05,12,993.09
2016,03,05,05,13,993.13
2016,03,05,05,14,993.16
2016,03,05,05,15,993.26
2016,03,05,05,16,993.36
2016,03,05,05,17,993.23
2016,03,05,05,18,993.33
2016,03,05,05,19,993.26
2016,03,05,05,20,993.30
2016,03,05,05,21,993.36
2016,03,05,05,22,993.43
2016,03,05,05,23,993.36
2016,03,05,05,24,993.30
2016,03,05,05,25,993.40
2016,03,05,05,26,993.47
2016,03,05,05,27,993.53
2016,03,05,05,28,993.53
2016,03,05,05,29,993.60
2016,03,05,05,30,993.60
2016,03,05,05,31,993.60
2016,03,05,05,32,993.60
2016,03,05,05,33,993.67
2016,03,05,05,34,993.70
2016,03,05,05,35,993.74
2016,03,05,05,36,993.74
2016,03,05,05,37,993.74
2016,03,05,05,38,993.74
2016,03,05,05,39,993.77
2016,03,05,05,40,993.84
2016,03,05,05,41,993.87
2016,03,05,05,42,993.91
2016,03,05,05,43,994.04
2016,03,05,05,44,994.01
2016,03,05,05,45,994.07
2016,03,05,05,46,994.07
2016,03,05,05,47,994.07
2016,03,05,05,48,994.04
2016,03,05,05,49,994.14
2016,03,05,05,50,994.18
2016,03,05,05,51,994.18
2016,03,05,05,52,994.18
2016,03,05,05,53,994.18
2016,03,05,05,54,994.24
2016,03,05,05,55,994.28
2016,03,05,05,56,994.38
2016,03,05,05,57,994.38
2016,03,05,05,58,994.35
2016,03,05,05,59,994.38
2016,03,05,06,00,994.41
2016,03,05,06,01,994.45
2016,03,05,06,02,994.52
2016,03,05,06,03,994.55
2016,03,05,06,04,994.55
2016,03,05,06,05,994.58
2016,03,05,06,06,994.55
2016,03,05,06,07,994.58
2016,03,05,06,08,994.58
2016,03,05,06,09,994.55
2016,03,05,06,10,994.52
2016,03,05,06,11,994.48
2016,03,05,06,12,994.48
2016,03,05,06,13,994.45
2016,03,05,06,14,994.45
2016,03,05,06,15,994.55
2016,03,05,06,16,994.55
2016,03,05,06,17,994.58
2016,03,05,06,18,994.58
2016,03,05,06,19,994.55
2016,03,05,06,20,994.62
2016,03,05,06,21,994.65
2016,03,05,06,22,994.65
2016,03,05,06,23,994.68
2016,03,05,06,24,994.65
2016,03,05,06,25,994.68
2016,03,05,06,26,994.75
2016,03,05,06,27,994.79
2016,03,05,06,28,994.79
2016,03,05,06,29,994.75
2016,03,05,06,30,994.79
2016,03,05,06,31,994.82
2016,03,05,06,32,994.79
2016,03,05,06,33,994.75
2016,03,05,06,34,994.75
2016,03,05,06,35,994.79
2016,03,05,06,36,994.72
2016,03,05,06,37,994.72
2016,03,05,06,38,994.75
2016,03,05,06,39,994.75
2016,03,05,06,40,994.75
2016,03,05,06,41,994.79
2016,03,05,06,42,994.75
2016,03,05,06,43,994.75
2016,03,05,06,44,994.79
2016,03,05,06,45,994.72
2016,03,05,06,46,994.79
2016,03,05,06,47,994.75
2016,03,05,06,48,994.82
2016,03,05,06,49,994.82
2016,03,05,06,50,994.85
2016,03,05,06,51,994.89
2016,03,05,06,52,994.96
2016,03,05,06,53,994.96
2016,03,05,06,54,995.09
2016,03,05,06,55,995.23
2016,03,05,06,56,995.23
2016,03,05,06,57,995.29
2016,03,05,06,58,995.33
2016,03,05,06,59,995.36
2016,03,05,07,00,995.33
2016,03,05,07,01,995.40
2016,03,05,07,02,995.40
2016,03,05,07,03,995.43
2016,03,05,07,04,995.43
2016,03,05,07,05,995.43
2016,03,05,07,06,995.60
2016,03,05,07,07,995.60
2016,03,05,07,08,995.60
2016,03,05,07,09,995.70
2016,03,05,07,10,995.80
2016,03,05,07,11,995.87
2016,03,05,07,12,995.90
2016,03,05,07,13,995.90
2016,03,05,07,14,996.14
2016,03,05,07,15,996.04
2016,03,05,07,16,996.07
2016,03,05,07,17,996.11
2016,03,05,07,18,996.17
2016,03,05,07,19,996.11
2016,03,05,07,20,996.01
2016,03,05,07,21,996.07
2016,03,05,07,22,996.14
2016,03,05,07,23,996.11
2016,03,05,07,24,996.17
2016,03,05,07,25,996.21
2016,03,05,07,26,996.24
2016,03,05,07,27,996.28
2016,03,05,07,28,996.34
2016,03,05,07,29,996.34
2016,03,05,07,30,996.41
2016,03,05,07,31,996.41
2016,03,05,07,32,996.38
2016,03,05,07,33,996.34
2016,03,05,07,34,996.34
2016,03,05,07,35,996.41
2016,03,05,07,36,996.38
2016,03,05,07,37,996.45
2016,03,05,07,38,996.55
2016,03,05,07,39,996.55
2016,03,05,07,40,996.48
2016,03,05,07,41,996.34
2016,03,05,07,42,996.31
2016,03,05,07,43,996.24
2016,03,05,07,44,996.21
2016,03,05,07,45,996.28
2016,03,05,07,46,996.41
2016,03,05,07,47,996.51
2016,03,05,07,48,996.51
2016,03,05,07,49,996.48
2016,03,05,07,50,996.51
2016,03,05,07,51,996.55
2016,03,05,07,52,996.61
2016,03,05,07,53,996.72
2016,03,05,07,54,996.78
2016,03,05,07,55,996.78
2016,03,05,07,56,996.82
2016,03,05,07,57,996.85
2016,03,05,07,58,996.99
2016,03,05,07,59,997.05
2016,03,05,08,00,997.09
2016,03,05,08,01,997.05
2016,03,05,08,02,997.05
2016,03,05,08,03,997.05
2016,03,05,08,04,997.09
2016,03,05,08,05,997.02
2016,03,05,08,06,996.99
2016,03,05,08,07,997.02
2016,03,05,08,08,997.12
2016,03,05,08,09,997.19
2016,03,05,08,10,997.16
2016,03,05,08,11,997.16
2016,03,05,08,12,997.22
2016,03,05,08,13,997.22
2016,03,05,08,14,997.26
2016,03,05,08,15,997.29
2016,03,05,08,16,997.19
2016,03,05,08,17,997.12
2016,03,05,08,18,997.09
2016,03,05,08,19,997.12
2016,03,05,08,20,997.16
2016,03,05,08,21,997.29
2016,03,05,08,22,997.29
2016,03,05,08,23,997.33
2016,03,05,08,24,997.29
2016,03,05,08,25,997.26
2016,03,05,08,26,997.22
2016,03,05,08,27,997.26
2016,03,05,08,28,997.29
2016,03,05,08,29,997.33
2016,03,05,08,30,997.36
2016,03,05,08,31,997.43
2016,03,05,08,32,997.43
2016,03,05,08,33,997.46
2016,03,05,08,34,997.53
2016,03,05,08,35,997.63
2016,03,05,08,36,997.63
2016,03,05,08,37,997.66
2016,03,05,08,38,997.63
2016,03,05,08,39,997.60
2016,03,05,08,40,997.56
2016,03,05,08,41,997.53
2016,03,05,08,42,997.60
2016,03,05,08,43,997.63
2016,03,05,08,44,997.66
2016,03,05,08,45,997.66
2016,03,05,08,46,997.63
2016,03,05,08,47,997.63
2016,03,05,08,48,997.60
2016,03,05,08,49,997.56
2016,03,05,08,50,997.53
2016,03,05,08,51,997.53
2016,03,05,08,52,997.60
2016,03,05,08,53,997.66
2016,03,05,08,54,997.63
2016,03,05,08,55,997.63
2016,03,05,08,56,997.66
2016,03,05,08,57,997.70
2016,03,05,08,58,997.63
2016,03,05,08,59,997.56
2016,03,05,09,00,997.63
2016,03,05,09,01,997.53
2016,03,05,09,02,997.53
2016,03,05,09,03,997.46
2016,03,05,09,04,997.36
2016,03,05,09,05,997.49
2016,03,05,09,06,997.50
2016,03,05,09,07,997.50
2016,03,05,09,08,997.46
2016,03,05,09,09,997.46
2016,03,05,09,10,997.50
2016,03,05,09,11,997.56
2016,03,05,09,12,997.53
2016,03,05,09,13,997.63
2016,03,05,09,14,997.60
2016,03,05,09,15,997.56
2016,03,05,09,16,997.46
2016,03,05,09,17,997.53
2016,03,05,09,18,997.53
2016,03,05,09,19,997.53
2016,03,05,09,20,997.50
2016,03,05,09,21,997.50
2016,03,05,09,22,997.53
2016,03,05,09,23,997.56
2016,03,05,09,24,997.63
2016,03,05,09,25,997.60
2016,03,05,09,26,997.63
2016,03,05,09,27,997.63
2016,03,05,09,28,997.60
2016,03,05,09,29,997.60
2016,03,05,09,30,997.53
2016,03,05,09,31,997.56
2016,03,05,09,32,997.60
2016,03,05,09,33,997.66
2016,03,05,09,34,997.56
2016,03,05,09,35,997.63
2016,03,05,09,36,997.70
2016,03,05,09,37,997.66
2016,03,05,09,38,997.77
2016,03,05,09,39,997.83
2016,03,05,09,40,997.80
2016,03,05,09,41,997.77
2016,03,05,09,42,997.83
2016,03,05,09,43,997.80
2016,03,05,09,44,997.77
2016,03,05,09,45,997.83
2016,03,05,09,46,997.80
2016,03,05,09,47,997.87
2016,03,05,09,48,997.77
2016,03,05,09,49,997.80
2016,03,05,09,50,997.77
2016,03,05,09,51,997.83
2016,03,05,09,52,997.80
2016,03,05,09,53,997.80
2016,03,05,09,54,997.77
2016,03,05,09,55,997.73
2016,03,05,09,56,997.73
2016,03,05,09,57,997.66
2016,03,05,09,58,997.73
2016,03,05,09,59,997.73
2016,03,05,10,00,997.80
2016,03,05,10,01,997.80
2016,03,05,10,02,997.80
2016,03,05,10,03,997.83
2016,03,05,10,04,997.77
2016,03,05,10,05,997.73
2016,03,05,10,06,997.73
2016,03,05,10,07,997.80
2016,03,05,10,08,997.73
2016,03,05,10,09,997.77
2016,03,05,10,10,997.73
2016,03,05,10,11,997.70
2016,03,05,10,12,997.73
2016,03,05,10,13,997.70
2016,03,05,10,14,997.73
2016,03,05,10,15,997.70
2016,03,05,10,16,997.70
2016,03,05,10,17,997.77
2016,03,05,10,18,997.66
2016,03,05,10,19,997.73
2016,03,05,10,20,997.66
2016,03,05,10,21,997.60
2016,03,05,10,22,997.76
2016,03,05,10,23,997.73
2016,03,05,10,24,997.73
2016,03,05,10,25,997.70
2016,03,05,10,26,997.70
2016,03,05,10,27,997.77
2016,03,05,10,28,997.77
2016,03,05,10,29,997.77
2016,03,05,10,30,997.80
2016,03,05,10,31,997.80
2016,03,05,10,32,997.80
2016,03,05,10,33,997.80
2016,03,05,10,34,997.77
2016,03,05,10,35,997.80
2016,03,05,10,36,997.83
2016,03,05,10,37,997.77
2016,03,05,10,38,997.80
2016,03,05,10,39,997.73
2016,03,05,10,40,997.77
2016,03,05,10,41,997.77
2016,03,05,10,42,997.73
2016,03,05,10,43,997.77
2016,03,05,10,44,997.80
2016,03,05,10,45,997.80
2016,03,05,10,46,997.80
2016,03,05,10,47,997.80
2016,03,05,10,48,997.83
2016,03,05,10,49,997.87
2016,03,05,10,50,997.83
2016,03,05,10,51,997.90
2016,03,05,10,52,997.83
2016,03,05,10,53,997.87
2016,03,05,10,54,997.83
2016,03,05,10,55,997.77
2016,03,05,10,56,997.80
2016,03,05,10,57,997.83
2016,03,05,10,58,997.77
2016,03,05,10,59,997.77
2016,03,05,11,00,997.77
2016,03,05,11,01,997.80
2016,03,05,11,02,997.83
2016,03,05,11,03,997.83
2016,03,05,11,04,997.83
2016,03,05,11,05,997.87
2016,03,05,11,06,997.90
2016,03,05,11,07,997.83
2016,03,05,11,08,997.87
2016,03,05,11,09,997.87
2016,03,05,11,10,997.83
2016,03,05,11,11,997.83
2016,03,05,11,12,997.80
2016,03,05,11,13,997.83
2016,03,05,11,14,997.87
2016,03,05,11,15,997.83
2016,03,05,11,16,997.83
2016,03,05,11,17,997.94
2016,03,05,11,18,997.94
2016,03,05,11,19,998.00
2016,03,05,11,20,997.97
2016,03,05,11,21,997.97
2016,03,05,11,22,998.00
2016,03,05,11,23,998.00
2016,03,05,11,24,998.00
2016,03,05,11,25,998.10
2016,03,05,11,26,998.14
2016,03,05,11,27,998.14
2016,03,05,11,28,998.14
2016,03,05,11,29,998.30
2016,03,05,11,30,998.24
2016,03,05,11,31,998.34
2016,03,05,11,32,998.41
2016,03,05,11,33,998.41
2016,03,05,11,34,998.41
2016,03,05,11,35,998.44
2016,03,05,11,36,998.41
2016,03,05,11,37,998.41
2016,03,05,11,38,998.51
2016,03,05,11,39,998.41
2016,03,05,11,40,998.44
2016,03,05,11,41,998.41
2016,03,05,11,42,998.44
2016,03,05,11,43,998.41
2016,03,05,11,44,998.41
2016,03,05,11,45,998.44
2016,03,05,11,46,998.34
2016,03,05,11,47,998.41
2016,03,05,11,48,998.48
2016,03,05,11,49,998.48
2016,03,05,11,50,998.41
2016,03,05,11,51,998.44
2016,03,05,11,52,998.44
2016,03,05,11,53,998.44
2016,03,05,11,54,998.51
2016,03,05,11,55,998.44
2016,03,05,11,56,998.48
2016,03,05,11,57,998.41
2016,03,05,11,58,998.48
2016,03,05,11,59,998.41
2016,03,05,12,00,998.44
2016,03,05,12,01,998.44
2016,03,05,12,02,998.48
2016,03,05,12,03,998.51
2016,03,05,12,04,998.51
2016,03,05,12,05,998.54
2016,03,05,12,06,998.51
2016,03,05,12,07,998.48
2016,03,05,12,08,998.51
2016,03,05,12,09,998.54
2016,03,05,12,10,998.54
2016,03,05,12,11,998.58
2016,03,05,12,12,998.61
2016,03,05,12,13,998.58
2016,03,05,12,14,998.58
2016,03,05,12,15,998.54
2016,03,05,12,16,998.54
2016,03,05,12,17,998.58
2016,03,05,12,18,998.58
2016,03,05,12,19,998.61
2016,03,05,12,20,998.54
2016,03,05,12,21,998.61
2016,03,05,12,22,998.54
2016,03,05,12,23,998.54
2016,03,05,12,24,998.51
2016,03,05,12,25,998.44
2016,03,05,12,26,998.44
2016,03,05,12,27,998.41
2016,03,05,12,28,998.34
2016,03,05,12,29,998.34
2016,03,05,12,30,998.38
2016,03,05,12,31,998.34
2016,03,05,12,32,998.34
2016,03,05,12,33,998.27
2016,03,05,12,34,998.24
2016,03,05,12,35,998.17
2016,03,05,12,36,998.21
2016,03,05,12,37,998.24
2016,03,05,12,38,998.27
2016,03,05,12,39,998.27
2016,03,05,12,40,998.24
2016,03,05,12,41,998.27
2016,03,05,12,42,998.31
2016,03,05,12,43,998.31
2016,03,05,12,44,998.34
2016,03,05,12,45,998.31
2016,03,05,12,46,998.27
2016,03,05,12,47,998.24
2016,03,05,12,48,998.24
2016,03,05,12,49,998.27
2016,03,05,12,50,998.24
2016,03,05,12,51,998.21
2016,03,05,12,52,998.17
2016,03,05,12,53,998.17
2016,03,05,12,54,998.14
2016,03,05,12,55,998.14
2016,03,05,12,56,998.17
2016,03,05,12,57,998.14
2016,03,05,12,58,998.14
2016,03,05,12,59,998.07
2016,03,05,13,00,998.10
2016,03,05,13,01,998.14
2016,03,05,13,02,998.14
2016,03,05,13,03,998.21
2016,03,05,13,04,998.14
2016,03,05,13,05,998.17
2016,03,05,13,06,998.21
2016,03,05,13,07,998.27
2016,03,05,13,08,998.34
2016,03,05,13,09,998.31
2016,03,05,13,10,998.24
2016,03,05,13,11,998.21
2016,03,05,13,12,998.08
2016,03,05,13,13,998.07
2016,03,05,13,14,998.00
2016,03,05,13,15,997.94
2016,03,05,13,16,997.90
2016,03,05,13,17,997.90
2016,03,05,13,18,997.87
2016,03,05,13,19,997.87
2016,03,05,13,20,997.90
2016,03,05,13,21,997.83
2016,03,05,13,22,997.83
2016,03,05,13,23,997.77
2016,03,05,13,24,997.77
2016,03,05,13,25,997.73
2016,03,05,13,26,997.73
2016,03,05,13,27,997.77
2016,03,05,13,28,997.80
2016,03,05,13,29,997.80
2016,03,05,13,30,997.80
2016,03,05,13,31,997.80
2016,03,05,13,32,997.80
2016,03,05,13,33,997.77
2016,03,05,13,34,997.80
2016,03,05,13,35,997.83
2016,03,05,13,36,997.83
2016,03,05,13,37,997.73
2016,03,05,13,38,997.70
2016,03,05,13,39,997.77
2016,03,05,13,40,997.73
2016,03,05,13,41,997.66
2016,03,05,13,42,997.73
2016,03,05,13,43,997.66
2016,03,05,13,44,997.63
2016,03,05,13,45,997.66
2016,03,05,13,46,997.60
2016,03,05,13,47,997.53
2016,03,05,13,48,997.50
2016,03,05,13,49,997.53
2016,03,05,13,50,997.47
2016,03,05,13,51,997.46
2016,03,05,13,52,997.53
2016,03,05,13,53,997.43
2016,03,05,13,54,997.43
2016,03,05,13,55,997.46
2016,03,05,13,56,997.50
2016,03,05,13,57,997.43
2016,03,05,13,58,997.43
2016,03,05,13,59,997.36
2016,03,05,14,00,997.39
2016,03,05,14,01,997.36
2016,03,05,14,02,997.43
2016,03,05,14,03,997.43
2016,03,05,14,04,997.50
2016,03,05,14,05,997.43
2016,03,05,14,06,997.39
2016,03,05,14,07,997.43
2016,03,05,14,08,997.36
2016,03,05,14,09,997.20
2016,03,05,14,10,997.26
2016,03,05,14,11,997.22
2016,03,05,14,12,997.22
2016,03,05,14,13,997.29
2016,03,05,14,14,997.16
2016,03,05,14,15,997.22
2016,03,05,14,16,997.26
2016,03,05,14,17,997.22
2016,03,05,14,18,997.26
2016,03,05,14,19,997.26
2016,03,05,14,20,997.26
2016,03,05,14,21,997.26
2016,03,05,14,22,997.26
2016,03,05,14,23,997.22
2016,03,05,14,24,997.19
2016,03,05,14,25,997.16
2016,03,05,14,26,997.16
2016,03,05,14,27,997.09
2016,03,05,14,28,997.16
2016,03,05,14,29,997.16
2016,03,05,14,30,997.12
2016,03,05,14,31,997.09
2016,03,05,14,32,997.09
2016,03,05,14,33,997.12
2016,03,05,14,34,997.12
2016,03,05,14,35,997.09
2016,03,05,14,36,997.09
2016,03,05,14,37,996.96
2016,03,05,14,38,996.99
2016,03,05,14,39,997.02
2016,03,05,14,40,997.05
2016,03,05,14,41,996.99
2016,03,05,14,42,997.05
2016,03,05,14,43,997.09
2016,03,05,14,44,997.12
2016,03,05,14,45,997.05
2016,03,05,14,46,997.02
2016,03,05,14,47,997.05
2016,03,05,14,48,997.05
2016,03,05,14,49,996.92
2016,03,05,14,50,997.02
2016,03,05,14,51,996.92
2016,03,05,14,52,996.89
2016,03,05,14,53,996.92
2016,03,05,14,54,996.89
2016,03,05,14,55,996.83
2016,03,05,14,56,996.78
2016,03,05,14,57,996.85
2016,03,05,14,58,996.78
2016,03,05,14,59,996.78
2016,03,05,15,00,996.75
2016,03,05,15,01,996.75
2016,03,05,15,02,996.68
2016,03,05,15,03,996.61
2016,03,05,15,04,996.61
2016,03,05,15,05,996.61
2016,03,05,15,06,996.55
2016,03,05,15,07,996.61
2016,03,05,15,08,996.58
2016,03,05,15,09,996.58
2016,03,05,15,10,996.58
2016,03,05,15,11,996.61
2016,03,05,15,12,996.58
2016,03,05,15,13,996.55
2016,03,05,15,14,996.61
2016,03,05,15,15,996.65
2016,03,05,15,16,996.61
2016,03,05,15,17,996.52
2016,03,05,15,18,996.55
2016,03,05,15,19,996.46
2016,03,05,15,20,996.48
2016,03,05,15,21,996.38
2016,03,05,15,22,996.28
2016,03,05,15,23,996.34
2016,03,05,15,24,996.22
2016,03,05,15,25,996.17
2016,03,05,15,26,996.14
2016,03,05,15,27,996.11
2016,03,05,15,28,996.11
2016,03,05,15,29,996.11
2016,03,05,15,30,996.01
2016,03,05,15,31,996.01
2016,03,05,15,32,995.90
2016,03,05,15,33,995.90
2016,03,05,15,34,995.78
2016,03,05,15,35,995.64
2016,03,05,15,36,995.60
2016,03,05,15,37,995.63
2016,03,05,15,38,995.57
2016,03,05,15,39,995.50
2016,03,05,15,40,995.53
2016,03,05,15,41,995.46
2016,03,05,15,42,995.40
2016,03,05,15,43,995.43
2016,03,05,15,44,995.46
2016,03,05,15,45,995.34
2016,03,05,15,46,995.27
2016,03,05,15,47,995.23
2016,03,05,15,48,995.23
2016,03,05,15,49,995.19
2016,03,05,15,50,995.16
2016,03,05,15,51,995.06
2016,03,05,15,52,995.09
2016,03,05,15,53,995.03
2016,03,05,15,54,994.99
2016,03,05,15,55,994.96
2016,03,05,15,56,994.92
2016,03,05,15,57,994.85
2016,03,05,15,58,994.75
2016,03,05,15,59,994.75
2016,03,05,16,00,994.65
2016,03,05,16,01,994.55
2016,03,05,16,02,994.55
2016,03,05,16,03,994.55
2016,03,05,16,04,994.52
2016,03,05,16,05,994.58
2016,03,05,16,06,994.46
2016,03,05,16,07,994.45
2016,03,05,16,08,994.52
2016,03,05,16,09,994.39
2016,03,05,16,10,994.41
2016,03,05,16,11,994.38
2016,03,05,16,12,994.45
2016,03,05,16,13,994.38
2016,03,05,16,14,994.38
2016,03,05,16,15,994.38
2016,03,05,16,16,994.41
2016,03,05,16,17,994.38
2016,03,05,16,18,994.29
2016,03,05,16,19,994.28
2016,03,05,16,20,994.19
2016,03,05,16,21,994.21
2016,03,05,16,22,994.14
2016,03,05,16,23,994.14
2016,03,05,16,24,994.08
2016,03,05,16,25,994.04
2016,03,05,16,26,994.04
2016,03,05,16,27,994.11
2016,03,05,16,28,994.04
2016,03,05,16,29,994.17
2016,03,05,16,30,994.11
2016,03,05,16,31,994.11
2016,03,05,16,32,994.14
2016,03,05,16,33,994.14
2016,03,05,16,34,994.11
2016,03,05,16,35,994.14
2016,03,05,16,36,994.23